x

Burns Harbor, In (bhri3) Weather Station

7:40am - Thu 21st Sep 2017 All times are CDT. -5 hours from GMT.

  • Wind
    8mph, 11mph gusts
  • Air Temp 74°f
  • Sea Pressure 1016.6mb
  • Burns Harbor, In
  • Burns Harbor, In

More Historic Weather Station data

Upgrade to MSW Pro to gain access to the past 30 days of data for over 8000 Wavebouys and Weather Stations around the globe.

Join

Comparision Forecast

View Surf forecast
   
Thu 09/21 7:40am 8 11 mph 1016.6mb 74f
7:30am 8 13 mph 1016.3mb 74f
7:20am 9 14 mph 1016.3mb 74f
7:10am 8 14 mph 1016.3mb 74f
7:04am 9 14 mph 1016.3mb 74f
7:00am 8 13 mph 1015.9mb 74f
6:40am 9 13 mph 1015.9mb 74f
6:30am 9 14 mph 1015.9mb 74f
6:20am 9 13 mph 1015.9mb 74f
6:10am 9 13 mph 1015.9mb 74f
6:04am 10 14 mph 1015.9mb 74f
6:00am 8 13 mph 1015.9mb 74f
5:40am 9 13 mph 1015.9mb 75f
5:30am 6 8 mph 1015.9mb 74f
5:20am 5 6 mph 1015.9mb 74f
5:10am 5 8 mph 1015.9mb 74f
5:04am 5 15 mph 1015.9mb 74f
5:00am 7 10 mph 1015.9mb 74f
4:40am 9 14 mph 1015.2mb 75f
4:30am 9 13 mph 1014.9mb 75f
4:20am 9 15 mph 1014.9mb 75f
4:10am 11 15 mph 1014.9mb 75f
4:03am 9 15 mph 1014.9mb 75f
4:00am 10 15 mph 1014.9mb 75f
3:40am 13 15 mph 1014.9mb 75f
3:30am 10 14 mph 1014.9mb 75f
3:20am 10 14 mph 1014.9mb 75f
3:10am 10 15 mph 1014.9mb 75f
3:03am 10 16 mph 1014.9mb 75f
3:00am 10 15 mph 1014.9mb 75f
2:40am 10 16 mph 1014.9mb 76f
2:30am 11 15 mph 1014.9mb 76f
2:20am 10 14 mph 1014.9mb 75f
2:10am 11 16 mph 1014.9mb 76f
2:02am 10 18 mph 1014.9mb 76f
2:00am 10 17 mph 1014.9mb 76f
1:40am 13 16 mph 1015.2mb 75f
1:30am 13 18 mph 1015.2mb 76f
1:20am 13 18 mph 1015.2mb 77f
1:10am 10 16 mph 1015.2mb 77f
1:02am 11 17 mph 1015.2mb 78f
1:00am 11 17 mph 1015.2mb 78f
12:40am 10 15 mph 1014.9mb 77f
12:30am 10 14 mph 1014.9mb 77f
12:20am 9 11 mph 1014.9mb 77f
12:10am 7 10 mph 1015.2mb 76f
12:02am 7 13 mph 1015.2mb 77f
12:00am 6 9 mph 1014.9mb 77f
Wed 09/20 11:40pm 8 11 mph 1014.6mb 77f
11:30pm 9 11 mph 1014.9mb 78f
11:20pm 8 11 mph 1014.9mb 78f
11:10pm 8 13 mph 1014.6mb 78f
11:01pm 9 22 mph 1014.6mb 78f
11:00pm 9 13 mph 1014.6mb 78f
10:40pm 10 14 mph 1013.9mb 79f
10:30pm 11 18 mph 1013.9mb 80f
10:20pm 13 16 mph 1013.9mb 80f
10:10pm 11 22 mph 1013.5mb 80f
10:01pm 14 21 mph 1013.2mb 80f
10:00pm 14 20 mph 1013.2mb 80f
9:40pm 11 21 mph 1012.9mb 81f
9:30pm 11 18 mph 1012.9mb 81f
9:20pm 11 21 mph 1012.9mb 81f
9:10pm 13 21 mph 1012.5mb 81f
9:00pm 11 21 mph 1012.5mb 82f
8:40pm 9 16 mph 1012.2mb 82f
8:30pm 7 15 mph 1012.2mb 83f
8:20pm 8 14 mph 1012.2mb 83f
8:10pm 8 14 mph 1012.2mb 83f
8:00pm 9 16 mph 1012.2mb 83f
7:40pm 8 13 mph 1012.2mb 83f
7:30pm 6 9 mph 1012.2mb 84f
7:20pm 7 13 mph 1012.2mb 84f
7:10pm 8 14 mph 1012.2mb 85f
7:00pm 8 24 mph 1012.2mb 85f
6:40pm 9 15 mph 1012.2mb 85f
6:30pm 11 15 mph 1012.2mb 86f
6:20pm 9 14 mph 1012.2mb 86f
6:10pm 8 16 mph 1012.2mb 87f
6:00pm 15 20 mph 1012.2mb 87f
5:40pm 15 21 mph 1012.2mb 88f
5:30pm 15 20 mph 1012.2mb 88f
5:20pm 11 22 mph 1012.2mb 88f
5:10pm 15 22 mph 1012.2mb 87f
5:00pm 20 24 mph 1012.2mb 87f
4:40pm 18 24 mph 1011.9mb 88f
4:30pm 16 24 mph 1012.2mb 88f
4:20pm 14 22 mph 1012.2mb 88f
4:10pm 13 20 mph 1012.2mb 88f
4:08pm 10 24 mph 1012.2mb 89f
4:00pm 17 23 mph 1012.5mb 88f
3:40pm 15 20 mph 1012.5mb 89f
3:30pm 10 17 mph 1012.9mb 88f
3:20pm 15 20 mph 1012.9mb 87f
3:10pm 10 18 mph 1012.9mb 88f
3:07pm 11 21 mph 1013.2mb 88f
3:00pm 11 21 mph 1013.2mb 87f
2:40pm 11 17 mph 1013.2mb 86f
2:30pm 13 18 mph 1013.2mb 86f
2:20pm 9 16 mph 1013.2mb 87f
2:10pm 14 20 mph 1013.2mb 88f
2:07pm 14 20 mph 1013.2mb 87f
2:00pm 10 16 mph 1013.2mb 87f
1:40pm 14 17 mph 1013.5mb 86f
1:30pm 10 20 mph 1013.5mb 86f
1:20pm 10 15 mph 1013.5mb 86f
1:10pm 9 17 mph 1013.9mb 85f
1:06pm 11 17 mph 1013.9mb 84f
1:00pm 11 17 mph 1014.2mb 85f
12:40pm 8 14 mph 1013.9mb 85f
12:30pm 9 15 mph 1014.2mb 84f
12:20pm 6 17 mph 1014.2mb 84f
12:10pm 11 17 mph 1014.2mb 83f
12:00pm 9 20 mph 1013.9mb 83f
11:40am 11 17 mph 1013.9mb 82f
11:30am 7 16 mph 1013.9mb 82f
11:20am 10 16 mph 1013.9mb 81f
11:10am 13 17 mph 1013.9mb 80f
11:06am 10 18 mph 1013.9mb 80f
11:00am 11 17 mph 1013.9mb 80f
10:40am 8 16 mph 1013.9mb 79f
10:30am 11 16 mph 1013.9mb 78f
10:20am 13 18 mph 1013.9mb 77f
10:10am 10 17 mph 1014.2mb 76f
10:05am 13 16 mph 1014.2mb 76f
10:00am 11 16 mph 1014.2mb 76f
9:40am 7 15 mph 1014.2mb 74f
9:30am 9 13 mph 1014.2mb 73f
9:20am 10 13 mph 1014.2mb 73f
9:10am 8 13 mph 1014.2mb 72f
9:05am 7 17 mph 1014.2mb 72f
9:00am 7 14 mph 1014.2mb 72f
8:40am 7 17 mph 1014.6mb 71f
8:30am 10 15 mph 1014.6mb 70f
8:20am 9 14 mph 1014.6mb 69f
8:10am 8 13 mph 1014.6mb 69f
8:04am 9 15 mph 1014.6mb 68f
8:00am 11 14 mph 1014.6mb 68f
7:40am 8 13 mph 1014.6mb 69f
7:30am 6 9 mph 1014.6mb 68f
7:20am 5 9 mph 1014.6mb 68f
7:10am 6 10 mph 1014.6mb 68f
7:04am 8 10 mph 1014.6mb 67f
7:00am 8 10 mph 1014.6mb 67f
6:40am 8 10 mph 1014.6mb 67f
6:30am 6 9 mph 1014.6mb 67f
6:20am 7 10 mph 1014.2mb 68f
6:10am 6 13 mph 1014.2mb 67f
6:04am 7 13 mph 1014.6mb 68f
6:00am 7 11 mph 1014.6mb 68f
5:40am 7 10 mph 1014.2mb 67f
5:30am 7 10 mph 1014.2mb 67f
5:20am 7 10 mph 1014.2mb 68f
5:10am 7 10 mph 1014.2mb 68f
5:03am 6 11 mph 1014.2mb 68f
5:00am 5 11 mph 1014.2mb 68f
4:40am 6 10 mph 1014.2mb 67f
4:30am 6 10 mph 1013.9mb 67f
4:20am 5 9 mph 1013.9mb 66f
4:10am 5 7 mph 1013.9mb 65f
4:03am 6 10 mph 1013.9mb 66f
4:00am 6 7 mph 1013.9mb 66f
3:40am 6 8 mph 1013.5mb 66f
3:30am 6 7 mph 1013.5mb 65f
3:20am 6 7 mph 1013.5mb 66f
3:10am 6 10 mph 1013.5mb 67f
3:02am 5 13 mph 1013.5mb 67f
3:00am 6 11 mph 1013.5mb 67f
2:40am 8 13 mph 1013.2mb 67f
2:30am 7 10 mph 1013.2mb 67f
2:20am 7 10 mph 1013.2mb 67f
2:10am 3 7 mph 1013.2mb 67f
2:02am 5 10 mph 1013.2mb 67f
2:00am 6 10 mph 1013.5mb 67f
1:40am 3 10 mph 1013.5mb 67f
1:30am 6 8 mph 1013.5mb 66f
1:20am 6 9 mph 1013.9mb 66f
1:10am 3 6 mph 1013.9mb 66f
1:00am 2 9 mph 1013.9mb 67f
12:40am 3 6 mph 1013.9mb 68f
12:30am  -  5 mph 1013.9mb 68f
12:20am 1 2 mph 1013.9mb 67f
12:10am 1 3 mph 1014.2mb 66f
12:01am 1 6 mph 1014.2mb 66f
12:00am 1 5 mph 1014.2mb 66f
Tue 09/19 11:40pm 2 5 mph 1013.9mb 66f
11:30pm 3 5 mph 1014.2mb 66f
11:20pm 3 6 mph 1014.2mb 67f
11:10pm 3 5 mph 1014.2mb 67f
11:01pm 3 8 mph 1014.2mb 67f
11:00pm 3 5 mph 1014.2mb 67f
10:40pm 7 8 mph 1014.2mb 67f
10:30pm 6 8 mph 1014.2mb 67f
10:20pm 5 7 mph 1014.2mb 67f
10:10pm 7 8 mph 1014.2mb 67f
10:00pm 3 8 mph 1014.2mb 67f
9:40pm 5 6 mph 1014.2mb 68f
9:30pm 5 8 mph 1014.2mb 68f
9:20pm 7 8 mph 1013.9mb 68f
9:10pm 6 8 mph 1013.9mb 68f
9:00pm 7 9 mph 1013.9mb 68f
8:40pm 7 8 mph 1013.9mb 68f
8:30pm 6 8 mph 1013.9mb 68f
8:20pm 8 9 mph 1013.5mb 68f
8:10pm 7 8 mph 1013.9mb 68f
8:00pm 6 13 mph 1013.9mb 68f
7:40pm 7 9 mph 1013.9mb 68f
7:30pm 8 10 mph 1013.5mb 68f
7:20pm 8 11 mph 1013.5mb 68f
7:10pm 9 11 mph 1013.2mb 68f
7:00pm 10 11 mph 1013.2mb 69f
6:40pm 10 13 mph 1013.5mb 69f
6:30pm 11 13 mph 1013.5mb 69f
6:20pm 10 13 mph 1013.5mb 69f
6:10pm 11 14 mph 1013.5mb 69f
6:00pm 13 14 mph 1013.5mb 70f
5:40pm 13 15 mph 1013.5mb 69f
5:30pm 14 15 mph 1013.5mb 69f
5:20pm 13 15 mph 1013.5mb 69f
5:10pm 14 15 mph 1013.5mb 69f
5:00pm 14 15 mph 1013.5mb 69f
4:40pm 11 14 mph 1013.9mb 69f
4:30pm 11 13 mph 1013.9mb 69f
4:20pm 9 11 mph 1013.9mb 69f
4:10pm 10 13 mph 1013.9mb 69f
4:00pm 11 13 mph 1013.9mb 69f
3:40pm 8 10 mph 1013.9mb 69f
3:30pm 8 9 mph 1013.9mb 69f
3:20pm 6 8 mph 1013.9mb 69f
3:10pm 7 8 mph 1013.9mb 71f
3:00pm 7 8 mph 1013.9mb 70f
2:40pm 7 8 mph 1013.9mb 71f
2:30pm 7 7 mph 1013.9mb 70f
2:25pm 6 16 mph 1013.9mb 70f
2:20pm 8 11 mph 1014.2mb 69f
2:10pm 10 13 mph 1014.2mb 69f
2:00pm 13 15 mph 1014.2mb 69f
1:40pm 15 16 mph 1014.2mb 69f
1:30pm 14 16 mph 1014.2mb 68f
1:20pm 10 13 mph 1014.2mb 69f
1:10pm 10 11 mph 1014.6mb 69f
1:00pm 10 13 mph 1014.9mb 69f
12:40pm 9 10 mph 1014.9mb 69f
12:30pm 9 11 mph 1014.9mb 70f
12:24pm 9 11 mph 1014.9mb 69f
12:20pm 10 10 mph 1014.9mb 69f
12:10pm 9 9 mph 1014.9mb 69f
12:00pm 7 8 mph 1014.9mb 69f
11:40am 8 9 mph 1015.2mb 68f
11:30am 7 8 mph 1015.2mb 68f
11:24am 7 10 mph 1015.2mb 68f
11:20am 7 9 mph 1015.2mb 68f
11:10am 8 9 mph 1015.2mb 68f
11:00am 8 9 mph 1015.2mb 68f
10:40am 7 8 mph 1015.2mb 68f
10:30am 7 8 mph 1015.2mb 68f
10:23am 6 7 mph 1015.2mb 68f
10:20am 6 7 mph 1015.2mb 68f
10:10am 6 7 mph 1014.9mb 68f
10:00am 3 5 mph 1015.2mb 68f
9:40am 2 3 mph 1014.9mb 68f
9:30am 2 3 mph 1014.9mb 68f
9:23am 2 5 mph 1014.9mb 67f
9:20am 2 3 mph 1014.9mb 67f
9:10am 2 3 mph 1014.9mb 67f
9:00am 3 5 mph 1014.9mb 67f
8:40am 2 3 mph 1014.9mb 67f
8:30am 3 3 mph 1014.9mb 67f
8:23am 2 6 mph 1014.9mb 67f
8:20am 2 5 mph 1014.9mb 67f
8:10am 5 6 mph 1014.9mb 67f
8:00am 5 6 mph 1014.6mb 67f
7:40am 2 3 mph 1014.6mb 67f
7:30am  -  0 mph 1014.6mb 67f
7:22am  -  6 mph 1014.6mb 67f
7:20am  -  3 mph 1014.6mb 67f
7:10am 2 3 mph 1014.6mb 67f
7:00am 3 5 mph 1014.2mb 67f
6:40am 3 6 mph 1014.2mb 67f
6:30am 2 6 mph 1014.2mb 67f
6:22am 2 16 mph 1014.2mb 67f
6:20am 5 7 mph 1014.2mb 67f
6:10am 2 7 mph 1013.9mb 67f
6:00am 5 8 mph 1013.9mb 67f
5:40am 8 10 mph 1013.9mb 66f
5:30am 9 16 mph 1013.5mb 66f
5:21am 13 16 mph 1013.5mb 66f
5:20am 13 16 mph 1013.5mb 66f
5:10am 3 8 mph 1013.9mb 66f
5:00am 8 15 mph 1014.2mb 66f
4:40am 9 11 mph 1013.5mb 67f
4:30am 9 13 mph 1013.5mb 67f
4:21am 8 13 mph 1013.9mb 67f
4:20am 8 9 mph 1013.9mb 67f
4:10am 2 3 mph 1014.2mb 66f
4:00am 3 5 mph 1014.2mb 65f
3:40am 2 8 mph 1014.2mb 66f
3:30am 7 11 mph 1014.2mb 66f
3:20am 5 9 mph 1014.2mb 66f
3:10am 3 5 mph 1013.9mb 67f
3:00am  -  6 mph 1013.9mb 67f
2:40am 5 6 mph 1014.2mb 66f
2:30am 2 5 mph 1014.2mb 66f
2:20am 3 10 mph 1014.6mb 66f
2:10am 6 9 mph 1014.2mb 66f
2:00am 8 10 mph 1014.6mb 66f
1:40am 6 7 mph 1014.6mb 66f
1:30am 5 6 mph 1014.9mb 66f
1:20am 6 8 mph 1014.9mb 66f
1:10am 7 9 mph 1014.9mb 66f
1:00am 7 9 mph 1014.9mb 66f
12:40am 6 7 mph 1014.9mb 67f
12:30am 6 8 mph 1014.9mb 67f
12:20am 6 8 mph 1015.2mb 67f
12:19am 6 13 mph 1015.2mb 67f
12:10am 6 7 mph 1015.6mb 67f
12:00am 6 7 mph 1015.6mb 67f
Mon 09/18 11:40pm 9 11 mph 1015.2mb 67f
11:30pm 10 13 mph 1015.2mb 67f
11:20pm 10 13 mph 1015.2mb 67f
11:19pm 9 14 mph 1015.6mb 67f
11:10pm 10 11 mph 1015.6mb 67f
11:00pm 9 11 mph 1015.9mb 67f
10:40pm 11 14 mph 1015.9mb 67f
10:30pm 13 14 mph 1015.9mb 67f
10:20pm 13 14 mph 1016.3mb 67f
10:19pm 13 15 mph 1015.9mb 67f
10:10pm 11 14 mph 1016.3mb 67f
10:00pm 11 14 mph 1016.3mb 67f
9:40pm 13 15 mph 1016.3mb 67f
9:30pm 13 15 mph 1016.6mb 67f
9:20pm 11 15 mph 1016.3mb 67f
9:18pm 13 16 mph 1016.3mb 68f
9:10pm 14 15 mph 1016.6mb 68f
9:00pm 13 16 mph 1016.6mb 68f
8:40pm 13 15 mph 1016.6mb 68f
8:30pm 14 14 mph 1016.6mb 67f
8:20pm 13 16 mph 1016.6mb 67f
8:18pm 14 16 mph 1016.6mb 67f
8:10pm 13 15 mph 1016.6mb 67f
8:00pm 13 14 mph 1016.6mb 67f
7:40pm 11 13 mph 1016.6mb 67f
7:30pm 11 13 mph 1016.6mb 67f
7:20pm 11 13 mph 1016.6mb 67f
7:17pm 11 15 mph 1016.6mb 67f
7:10pm 13 14 mph 1016.6mb 67f
7:00pm 13 15 mph 1016.6mb 67f
6:40pm 14 15 mph 1016.3mb 67f
6:30pm 13 14 mph 1016.6mb 67f
6:20pm 13 15 mph 1016.6mb 68f
6:17pm 11 15 mph 1016.6mb 68f
6:10pm 14 15 mph 1016.6mb 67f
6:00pm 14 15 mph 1016.6mb 67f
5:40pm 14 15 mph 1016.6mb 68f
5:30pm 14 15 mph 1016.6mb 67f
5:20pm 13 14 mph 1016.6mb 67f
5:16pm 13 14 mph 1016.6mb 68f
5:10pm 13 14 mph 1016.6mb 68f
5:00pm 13 14 mph 1016.9mb 68f
4:40pm 11 14 mph 1016.9mb 68f
4:30pm 13 14 mph 1016.9mb 68f
4:20pm 13 14 mph 1017.3mb 68f
4:16pm 13 14 mph 1017.3mb 68f
4:10pm 11 13 mph 1017.3mb 68f
4:00pm 10 13 mph 1017.6mb 68f
3:40pm 11 13 mph 1017.6mb 68f
3:30pm 11 13 mph 1017.9mb 68f
3:20pm 13 14 mph 1017.9mb 68f
3:16pm 13 15 mph 1017.9mb 67f
3:10pm 13 15 mph 1017.9mb 67f
3:00pm 13 14 mph 1018.3mb 67f
2:40pm 13 15 mph 1018.3mb 67f
2:30pm 11 14 mph 1018.3mb 67f
2:20pm 11 13 mph 1018.3mb 67f
2:15pm 11 14 mph 1018.3mb 68f
2:10pm 11 14 mph 1018.6mb 68f
2:00pm 11 14 mph 1018.6mb 68f
1:40pm 11 14 mph 1018.6mb 68f
1:30pm 11 14 mph 1019mb 68f
1:20pm 10 13 mph 1019mb 68f
1:15pm 10 13 mph 1019mb 68f
1:10pm 11 13 mph 1019mb 68f
1:00pm 11 13 mph 1019.3mb 68f
12:40pm 9 11 mph 1020mb 68f
12:30pm 10 11 mph 1020mb 68f
12:20pm 9 13 mph 1020mb 69f
12:14pm 9 11 mph 1020mb 68f
12:10pm 9 10 mph 1020.3mb 68f
12:00pm 9 11 mph 1020.3mb 67f
11:40am 9 10 mph 1020.3mb 67f
11:30am 9 11 mph 1020.3mb 67f
11:20am 10 10 mph 1020.3mb 68f
11:14am 9 11 mph 1020.3mb 68f
11:10am 9 10 mph 1020.3mb 68f
11:00am 9 11 mph 1020.3mb 68f
10:40am 9 11 mph 1020.3mb 68f
10:30am 9 11 mph 1020.3mb 68f
10:20am 10 10 mph 1020mb 68f
10:14am 9 13 mph 1020mb 68f
10:10am 9 10 mph 1020mb 68f
10:00am 9 10 mph 1020mb 68f
9:40am 9 10 mph 1020mb 68f
9:30am 9 11 mph 1020mb 68f
9:20am 9 13 mph 1020mb 68f
9:13am 11 13 mph 1020mb 68f
9:10am 10 13 mph 1019.6mb 68f
9:00am 9 11 mph 1020mb 68f
8:40am 10 13 mph 1020mb 67f
8:30am 10 13 mph 1020mb 67f
8:20am 10 13 mph 1020mb 67f
8:13am 10 13 mph 1020.3mb 67f
8:10am 10 13 mph 1024.4mb 67f
8:00am 10 13 mph 1020mb 67f
7:40am 10 11 mph 1020mb 67f
7:30am 10 13 mph 1020mb 67f
7:20am 10 13 mph 1020mb 67f
7:12am 11 14 mph 1019.6mb 67f
7:10am 11 14 mph 1019.6mb 67f
7:00am 11 14 mph 1020mb 67f
6:40am 13 14 mph 1019.6mb 67f
6:30am 11 13 mph 1019.6mb 67f
6:20am 11 13 mph 1019.6mb 67f
6:12am 11 14 mph 1019.6mb 67f
6:10am 11 14 mph 1019.6mb 67f
6:00am 13 13 mph 1019.6mb 67f
5:40am 11 14 mph 1019.6mb 67f
5:30am 11 14 mph 1019.3mb 67f
5:20am 11 14 mph 1019.3mb 67f
5:12am 11 15 mph 1019.3mb 67f
5:10am 11 14 mph 1019.3mb 67f
5:00am 13 15 mph 1019.3mb 67f
4:40am 11 14 mph 1019mb 67f
4:30am 10 13 mph 1019mb 67f
4:20am 13 14 mph 1019mb 67f
4:11am 11 15 mph 1019mb 67f
4:10am 11 14 mph 1019mb 67f
4:00am 13 15 mph 1019mb 67f
3:40am 13 14 mph 1019mb 67f
3:30am 14 15 mph 1018.6mb 67f
3:20am 14 15 mph 1019mb 67f
3:11am 13 16 mph 1019mb 67f
3:10am 13 15 mph 1019mb 67f
3:00am 13 15 mph 1019.3mb 67f
2:40am 14 16 mph 1019.3mb 67f
2:30am 14 15 mph 1019.3mb 67f
2:20am 13 15 mph 1019.3mb 67f
2:10am 13 16 mph 1019.3mb 67f
2:00am 13 15 mph 1019.3mb 67f
1:40am 13 15 mph 1019.6mb 67f
1:30am 14 15 mph 1019.6mb 67f
1:20am 14 16 mph 1020mb 67f
1:10am 15 17 mph 1020mb 68f
1:00am 14 17 mph 1020mb 68f
12:40am 14 16 mph 1020mb 68f
12:30am 16 17 mph 1020mb 68f
12:20am 14 17 mph 1020mb 68f
12:10am 15 20 mph 1020mb 68f
12:00am 15 20 mph 1020.3mb 68f
Sun 09/17 11:40pm 16 20 mph 1019.6mb 69f
11:30pm 17 20 mph 1020mb 69f
11:20pm 16 20 mph 1020mb 69f
11:10pm 13 20 mph 1020mb 69f
11:09pm 13 21 mph 1020mb 70f
11:00pm 16 21 mph 1020mb 70f
10:40pm 10 17 mph 1020mb 70f
10:30pm 9 11 mph 1019.6mb 70f
10:20pm 9 11 mph 1019.6mb 70f
10:10pm 8 10 mph 1019.6mb 70f
10:09pm 8 11 mph 1019.6mb 70f
10:00pm 7 9 mph 1019.6mb 70f
9:40pm 8 9 mph 1019.6mb 70f
9:30pm 8 10 mph 1019.6mb 70f
9:20pm 9 11 mph 1019.6mb 70f
9:10pm 9 10 mph 1019.3mb 70f
9:08pm 8 9 mph 1019.3mb 70f
9:00pm 8 9 mph 1019.3mb 70f
8:40pm 6 6 mph 1019mb 71f
8:30pm 5 7 mph 1019mb 71f
8:20pm 3 5 mph 1019mb 70f
8:10pm 3 7 mph 1018.6mb 70f
8:08pm 5 10 mph 1018.6mb 70f
8:00pm 6 9 mph 1018.6mb 71f
7:40pm 8 9 mph 1018.3mb 72f
7:30pm 7 10 mph 1017.9mb 72f
7:20pm 7 8 mph 1017.9mb 71f
7:10pm 5 6 mph 1017.9mb 71f
7:08pm 6 6 mph 1017.9mb 71f
7:00pm 5 6 mph 1017.9mb 71f
6:40pm  -  3 mph 1017.6mb 71f
6:30pm 2 5 mph 1017.6mb 72f
6:20pm 3 5 mph 1017.6mb 73f
6:10pm  -  6 mph 1017.3mb 73f
6:07pm 3 13 mph 1017.3mb 73f
6:00pm 3 6 mph 1017.3mb 74f
5:40pm 6 10 mph 1017.3mb 73f
5:30pm 6 11 mph 1017.6mb 73f
5:20pm 8 13 mph 1017.6mb 74f
5:10pm 7 10 mph 1017.6mb 74f
5:07pm 8 14 mph 1017.6mb 75f
5:00pm 5 7 mph 1017.6mb 76f
4:40pm 6 13 mph 1017.6mb 75f
4:30pm 11 14 mph 1017.6mb 74f
4:20pm 6 9 mph 1017.3mb 73f
4:10pm 9 10 mph 1017.3mb 72f
4:06pm 9 14 mph 1017.3mb 72f
4:00pm 7 10 mph 1017.3mb 71f
3:40pm 8 8 mph 1016.9mb 72f
3:30pm 6 14 mph 1017.3mb 73f
3:20pm 5 10 mph 1017.3mb 74f
3:10pm 8 26 mph 1017.3mb 75f
3:06pm 7 26 mph 1016.9mb 74f
3:00pm 21 25 mph 1017.3mb 73f
2:40pm 11 14 mph 1016.9mb 73f
2:30pm 7 9 mph 1016.6mb 74f
2:20pm 8 9 mph 1016.9mb 75f